Vorticity
4 5 5 5 5 5 4 4 4 5 6 8 8 9 8 7 7 8 8 7 6 6 5 6 6 7 8 9 10 10 10 9 8 7 6 5 4 4 4 5 5 6 6 6 6 6 6 7 7 8 9 11 12 13 13 12 10 8 6 5 3 2 2 1 1 2 5 8 11 13 13 12 12 12 12 12 12 11 10 10 11 11 12 13 13 12 10 8 6 5 4 4 3 3 2 2 3 4 4 5 7 7 5
6 6 6 6 6 6 5 5 6 7 8 9 9 9 8 9 10 10 9 7 6 6 5 6 7 8 11 12 12 11 9 8 7 6 6 5 4 4 4 4 4 5 5 5 5 5 5 5 7 8 9 10 11 12 13 12 11 9 7 5 4 3 2 2 1 1 2 5 8 11 13 13 12 12 11 11 10 10 10 10 10 10 11 12 13 12 11 8 6 5 4 3 2 1 0 1 2 4 5 5 6 7 6
7 7 7 6 6 6 6 6 8 9 10 10 10 9 10 14 14 12 8 7 6 6 5 6 9 12 16 15 12 9 7 6 5 5 5 6 5 5 5 4 4 4 5 5 5 5 4 5 6 7 9 10 11 12 12 12 11 10 8 6 4 3 3 2 2 1 1 2 4 7 11 12 12 12 11 10 10 10 10 10 10 10 11 12 12 12 11 9 7 7 6 6 4 2 1 1 3 4 5 5 5 5 5
7 7 6 6 6 6 7 8 9 10 11 10 10 9 9 10 8 6 5 6 6 6 5 8 12 15 15 11 7 4 4 4 4 4 5 6 6 7 6 6 5 5 5 5 6 6 6 5 5 6 7 9 10 11 11 12 11 10 9 7 6 4 3 3 2 2 1 1 1 3 6 9 11 12 12 11 11 10 10 10 10 10 10 11 12 12 12 10 10 10 11 12 10 8 5 4 4 4 4 4 5 5 6
8 7 6 6 7 7 8 9 10 10 10 10 9 9 8 6 4 3 3 5 6 6 6 10 11 11 8 4 2 1 3 4 4 4 4 5 6 7 8 7 7 6 5 5 6 7 8 7 7 6 6 7 8 9 10 10 11 10 9 8 7 5 4 4 3 3 2 1 0 1 2 5 8 10 12 12 12 11 10 10 10 10 9 10 10 11 12 11 11 12 14 16 15 13 9 6 5 4 3 4 4 5 7
7 6 6 7 8 9 9 10 10 10 9 9 8 8 7 7 4 1 2 5 5 5 5 8 8 7 7 4 2 1 2 4 4 4 4 5 6 7 8 8 7 6 5 5 5 7 8 9 9 8 7 7 7 7 8 9 9 9 9 8 7 6 5 5 4 4 3 2 0 -0 -0 1 4 7 10 12 13 13 12 11 10 10 9 9 9 10 10 11 11 13 14 16 16 14 10 7 5 4 3 5 5 4 7
6 6 7 8 9 9 9 9 9 9 8 8 8 7 7 6 6 7 7 6 5 4 7 9 8 8 10 7 4 2 1 3 5 5 5 5 6 7 8 8 7 6 4 4 4 5 7 8 9 10 9 8 7 7 7 8 8 8 8 8 7 7 6 6 5 5 4 3 2 0 -1 -0 1 3 6 9 12 13 13 12 11 10 9 8 8 8 9 9 10 12 13 14 14 12 10 8 6 6 6 6 5 5 7
7 8 8 9 9 9 8 8 8 8 8 7 7 7 6 6 6 6 6 5 6 7 11 9 7 6 6 5 3 3 3 4 5 6 6 6 5 5 5 5 5 4 3 3 3 4 5 6 8 9 10 9 9 8 8 7 7 7 7 7 7 6 6 6 6 6 6 5 4 2 1 0 -0 1 2 6 9 11 13 13 12 12 10 9 8 8 8 8 9 10 9 10 10 9 8 7 7 7 7 8 8 8 9
8 8 9 9 8 8 8 8 8 7 7 7 7 6 6 6 5 5 5 4 6 7 7 4 3 2 1 1 1 2 3 3 4 4 4 4 4 3 1 1 1 1 1 2 3 4 4 5 5 6 8 8 8 9 9 8 8 7 7 6 6 5 5 6 6 7 7 7 6 5 3 2 1 0 0 2 5 8 10 12 13 13 12 11 10 9 8 7 8 8 6 6 6 5 5 6 6 7 7 8 9 9 9
8 9 10 9 8 8 8 7 7 7 7 6 6 6 5 5 4 4 4 3 4 4 3 1 1 1 1 1 2 2 2 2 2 1 1 2 2 2 0 -1 -2 -1 -0 1 3 4 5 5 4 4 4 5 6 7 9 9 9 9 8 7 6 5 5 5 5 6 7 7 7 6 5 3 2 1 0 1 2 4 7 9 12 13 14 13 12 11 10 9 8 8 7 5 4 4 4 5 5 6 6 7 7 8 8
9 10 10 8 7 7 7 7 6 6 6 5 5 5 4 4 4 3 3 3 3 2 1 1 1 1 2 3 4 5 5 6 6 6 5 5 5 4 2 1 0 1 2 3 4 6 7 6 5 4 3 3 4 5 7 9 10 10 10 10 8 7 6 5 5 5 6 7 7 7 6 5 3 2 1 1 1 2 3 6 8 11 13 13 13 13 12 11 9 8 8 6 5 5 5 5 5 5 5 5 6 6 6
9 8 7 6 6 7 6 6 5 5 4 4 4 4 4 3 3 3 3 3 3 2 2 2 3 4 4 6 7 8 9 9 9 9 9 9 8 7 6 5 5 5 5 6 6 6 7 7 6 5 4 3 2 3 4 6 8 10 11 11 11 10 8 7 6 5 5 6 6 7 6 5 4 3 2 1 1 2 2 3 5 7 10 12 13 13 13 13 12 11 9 8 7 7 7 6 5 5 4 4 5 5 5
8 7 6 5 5 5 5 4 4 4 3 3 3 3 3 3 3 3 4 4 3 3 3 4 4 5 5 6 7 8 9 8 7 8 9 10 10 9 8 7 7 7 8 7 7 6 6 6 5 5 5 3 2 1 2 3 4 6 8 9 10 10 10 9 8 7 6 6 6 6 6 5 4 3 2 2 2 2 2 2 3 4 6 8 10 12 13 13 13 13 12 11 10 9 8 7 7 6 5 5 4 4 4
6 6 4 4 4 4 3 3 3 3 3 3 3 3 3 3 3 4 4 4 4 4 4 4 4 5 5 5 6 7 7 6 4 4 4 5 5 6 7 8 8 7 8 7 7 7 6 4 4 4 4 3 2 1 0 1 1 3 4 5 6 7 8 9 9 8 7 7 6 6 6 5 4 3 2 2 2 2 2 2 2 3 3 5 7 9 11 12 13 13 14 13 12 11 10 9 8 7 7 6 6 5 5
4 4 3 4 4 3 2 2 2 2 2 3 3 3 3 3 3 3 3 3 3 4 4 4 4 4 4 5 5 6 6 4 2 0 -0 -1 -2 0 4 7 6 5 5 6 6 6 6 5 4 3 3 3 3 2 2 1 1 2 2 3 4 5 6 7 8 8 8 7 7 7 6 5 5 4 3 2 2 2 3 3 3 3 3 3 4 6 7 9 11 12 13 14 14 13 12 11 10 10 9 8 8 7 7
3 2 2 3 2 2 2 2 2 2 2 2 2 3 3 3 3 3 3 3 3 3 3 3 3 3 4 4 4 4 3 2 -0 -1 -2 -3 -3 -2 2 4 4 3 2 4 5 6 6 5 4 4 4 4 4 4 4 4 4 4 3 3 3 4 5 6 7 7 8 8 8 7 7 6 6 6 4 3 2 3 3 4 5 4 3 3 3 4 5 7 8 10 12 13 13 13 13 13 12 12 11 11 11 10 10
2 2 1 1 0 1 1 2 2 2 2 2 2 2 2 2 2 2 2 2 2 3 3 3 3 3 3 3 3 3 2 1 0 -1 -2 -2 -2 -1 -0 2 2 2 2 4 5 6 6 5 5 4 4 5 5 6 7 7 6 6 5 4 4 4 5 6 7 7 8 8 8 8 8 7 6 6 5 4 3 3 3 4 5 5 5 4 3 4 4 6 7 8 9 11 12 12 13 13 13 13 13 13 13 13 12
2 2 2 1 1 1 2 2 2 2 1 1 1 1 1 1 2 2 2 2 2 2 2 2 3 3 3 3 3 3 3 3 3 2 1 1 0 -0 1 2 3 3 4 5 6 6 6 5 5 5 5 5 6 7 7 7 7 7 6 5 5 5 5 6 7 8 8 8 8 8 8 7 6 5 5 4 3 3 2 3 4 5 5 4 4 3 4 5 6 7 8 9 10 11 12 12 13 13 14 14 14 14 14
2 2 2 2 1 1 1 1 1 1 1 1 1 1 1 1 1 1 1 1 2 2 2 2 2 3 3 3 3 3 3 3 3 3 3 3 3 3 4 5 6 6 6 6 6 6 6 5 5 5 5 5 6 6 7 7 7 6 6 5 5 5 5 5 6 8 9 9 9 9 9 8 7 7 6 5 4 3 3 3 3 4 5 4 4 3 3 4 5 6 7 8 8 9 10 11 12 12 13 13 14 14 14
1 1 1 1 1 1 1 1 1 1 1 1 1 1 1 1 1 1 1 1 1 2 2 2 2 2 2 2 2 2 3 3 3 2 2 4 6 7 8 8 8 7 7 7 7 7 6 6 6 5 5 5 5 5 6 6 6 6 6 5 5 5 5 5 6 7 8 9 10 10 10 10 9 9 8 7 6 5 4 3 3 4 4 4 4 3 3 4 4 5 6 7 7 8 9 10 10 11 11 11 12 12 13
1 1 1 1 1 1 1 1 1 1 1 1 1 1 1 1 1 1 1 1 1 2 2 2 2 2 2 2 2 2 3 2 2 2 3 6 8 9 7 7 7 7 7 7 7 7 7 7 6 6 6 5 5 5 5 5 5 5 5 5 5 5 5 5 5 6 7 8 10 11 12 12 11 11 10 9 7 6 5 4 4 4 5 4 4 3 3 3 4 4 5 6 7 7 8 9 10 10 9 9 10 10 11
1 1 1 1 1 1 1 1 1 1 2 2 2 2 2 2 2 2 2 2 2 2 2 2 2 2 2 2 2 3 3 3 2 3 4 7 7 4 2 4 6 7 7 7 7 7 8 7 7 7 6 6 5 4 4 4 4 4 4 4 4 4 5 5 5 6 6 7 9 10 12 13 13 12 12 11 10 8 7 6 5 5 6 6 5 4 3 3 3 4 4 5 5 6 8 9 9 9 8 8 8 8 9
2 2 2 2 2 2 2 2 2 2 2 2 2 2 2 2 2 2 2 2 2 2 2 2 2 2 2 3 3 3 3 3 3 4 5 6 4 1 0 4 6 7 7 7 7 7 8 8 7 7 7 6 5 5 4 4 4 4 4 4 4 4 5 5 5 6 6 6 7 9 10 12 13 13 13 12 12 11 9 7 6 6 7 7 7 6 4 3 3 3 3 4 4 5 7 9 9 10 9 7 7 7 7
3 3 3 3 3 3 3 3 3 3 3 3 3 3 3 3 3 3 3 3 2 2 2 2 2 2 3 3 3 3 3 3 4 5 6 5 3 2 5 7 9 9 8 8 7 7 7 7 7 7 7 6 6 5 5 4 4 4 4 4 4 4 5 5 5 6 6 6 6 7 8 9 11 12 13 13 13 12 11 9 8 7 7 8 9 8 6 4 3 3 3 3 4 5 6 8 9 10 9 8 7 6 6
4 4 4 4 4 5 4 4 5 5 5 5 4 4 4 4 4 3 3 3 3 3 3 2 2 2 3 3 3 3 3 4 5 6 6 6 7 8 11 13 14 13 11 8 6 6 5 6 6 6 6 7 7 6 5 4 4 4 4 4 4 4 5 5 5 6 7 7 6 6 6 7 8 9 11 12 12 13 12 11 9 8 7 8 9 9 8 6 4 3 3 3 4 4 5 7 8 9 9 8 7 6 6
4 4 5 5 5 5 5 5 5 6 6 5 5 5 5 5 4 4 4 3 3 3 3 2 2 2 3 3 3 3 3 4 6 7 9 11 13 15 17 16 14 10 6 4 4 5 5 6 6 7 8 7 7 6 5 5 4 4 3 4 4 4 5 5 6 6 7 7 6 5 5 5 6 7 8 9 11 12 12 12 11 10 8 8 8 9 9 8 6 4 3 4 4 4 4 5 7 8 9 8 7 6 6
3 4 4 5 5 5 5 6 6 6 6 6 6 6 6 5 5 5 4 4 3 3 3 3 3 3 3 3 3 3 3 5 7 10 13 14 13 11 9 5 2 -1 -2 1 4 7 7 7 8 8 8 7 6 5 5 4 4 4 3 3 3 4 4 5 6 7 7 7 6 5 5 5 5 6 6 7 9 10 11 12 12 11 10 8 8 8 9 9 7 6 4 4 4 4 4 5 6 7 8 8 7 6 6
4 4 4 4 5 5 6 6 6 6 6 6 6 6 6 6 5 5 4 4 4 3 3 3 3 3 3 3 3 3 3 5 8 9 8 8 7 4 -1 -5 -6 -4 -1 4 8 10 10 9 8 7 7 6 5 4 4 4 4 4 4 3 3 4 4 5 6 7 7 7 6 5 5 6 6 6 6 7 7 8 10 11 12 12 11 9 8 8 8 9 9 8 5 4 4 4 4 4 5 6 7 7 7 6 6
4 4 4 5 5 6 6 6 6 6 6 6 6 6 6 6 5 5 5 4 4 4 3 3 3 3 3 3 3 3 5 9 10 8 5 3 0 -3 -6 -4 -1 2 7 10 11 11 9 8 7 5 4 3 3 2 3 4 4 5 5 4 4 4 4 5 6 6 7 6 6 6 6 6 7 7 8 9 8 8 8 9 11 12 12 10 9 8 8 8 9 9 8 5 4 4 4 4 4 5 5 6 6 6 5
6 5 6 6 6 6 6 6 6 6 6 6 6 6 5 5 5 4 4 4 4 4 4 3 3 3 3 3 4 5 9 11 9 6 2 1 0 0 1 4 8 11 14 13 11 8 5 5 4 4 3 2 2 3 3 4 5 6 6 6 5 5 5 5 5 6 6 6 6 6 6 6 6 7 7 8 8 7 7 7 9 10 12 11 9 7 8 8 8 9 10 8 6 4 4 4 4 4 4 5 5 5 5
8 8 8 7 7 7 6 6 6 6 5 6 6 5 5 5 5 5 4 5 5 4 4 4 4 4 4 5 5 6 6 5 3 2 1 2 3 5 8 10 12 11 8 6 4 2 2 2 2 3 4 4 4 5 6 7 7 8 8 8 8 7 6 5 5 6 6 6 6 6 6 6 6 6 6 6 6 6 5 6 6 8 10 11 9 7 7 9 8 8 10 10 8 6 4 4 4 4 4 4 4 4 4
9 9 9 8 8 8 7 7 7 6 6 6 5 5 5 5 5 6 6 6 6 6 6 6 6 6 6 7 7 6 3 3 2 2 1 3 6 9 11 8 7 5 2 2 1 1 1 1 2 3 4 6 7 8 9 10 10 10 10 10 9 8 7 6 6 6 6 6 5 5 5 6 6 7 7 6 6 5 5 4 5 6 7 9 9 8 6 9 9 8 7 11 11 9 6 5 4 4 3 3 4 4 4
9 9 9 9 9 8 8 8 7 7 7 7 7 7 7 7 8 8 9 10 10 9 9 9 8 7 7 7 8 8 8 7 7 8 9 9 8 7 7 5 3 2 1 3 4 4 4 4 5 6 7 8 10 10 11 11 11 11 10 10 9 9 8 7 6 6 6 6 5 5 5 5 5 6 6 6 6 5 4 4 4 4 5 7 9 8 5 7 8 9 7 8 10 12 9 7 5 4 3 3 3 3 3
10 10 10 10 10 9 9 9 8 8 8 8 9 9 9 9 10 11 11 10 10 10 9 8 8 8 8 8 9 9 10 10 11 12 12 11 9 7 4 5 5 5 4 7 9 10 10 10 10 10 10 10 11 11 10 10 9 9 9 8 8 8 8 7 7 7 6 5 5 4 4 4 4 5 5 6 5 5 4 4 4 3 4 5 7 8 7 5 7 8 7 7 8 11 13 10 7 5 4 4 3 3 2
10 10 10 10 9 9 9 9 9 9 9 8 8 8 7 8 9 10 10 8 8 8 8 8 8 9 10 10 10 10 10 11 11 12 12 11 9 7 5 6 6 7 8 10 12 13 14 14 13 13 11 11 10 9 8 7 7 7 7 7 7 7 7 7 7 7 6 6 5 5 4 4 4 4 4 5 5 4 4 4 3 3 3 4 5 7 8 6 6 7 8 7 7 9 12 12 10 8 6 5 4 3 2
10 10 9 9 9 9 9 9 9 9 9 9 9 9 9 9 10 12 11 9 8 8 8 9 9 10 11 11 10 10 10 11 11 12 11 9 8 6 6 6 6 7 9 10 11 11 12 12 11 10 10 9 8 6 6 5 5 6 7 7 7 7 7 7 8 7 7 7 7 7 6 5 4 4 4 4 4 4 3 3 3 3 3 4 4 6 8 7 6 7 8 8 7 8 8 11 11 10 9 7 5 4 2
10 10 9 9 8 8 9 9 9 10 10 10 10 10 11 11 11 11 8 9 10 10 10 11 11 12 11 11 11 11 10 11 11 11 11 9 8 7 7 6 6 6 7 7 7 7 7 7 7 7 7 6 5 5 5 5 6 8 8 9 9 9 9 8 8 8 9 9 9 8 8 7 6 5 4 4 4 4 3 3 2 2 3 3 4 5 6 7 7 7 9 9 8 8 8 9 10 10 10 9 8 6 4
10 10 9 9 9 9 9 9 9 9 10 10 11 12 13 13 11 9 8 9 10 11 11 12 12 12 12 12 12 12 11 11 11 11 10 10 10 9 9 7 6 6 5 5 4 3 3 3 3 4 4 4 5 5 6 8 10 10 10 10 10 10 9 9 9 9 9 9 9 9 8 8 7 6 6 5 5 4 4 3 2 2 2 3 4 5 6 7 7 7 8 9 8 8 8 9 9 9 9 10 10 9 7
11 11 11 11 11 11 10 10 10 10 10 11 12 13 13 12 11 10 10 11 11 11 12 12 12 12 13 13 12 12 12 11 11 10 10 10 11 11 10 9 9 8 6 4 3 3 2 2 2 2 2 4 5 6 8 11 12 11 10 9 9 8 8 8 8 8 8 8 8 7 7 7 7 7 6 6 5 5 4 4 3 3 3 3 4 5 5 6 7 7 7 8 9 8 7 9 9 9 8 9 10 10 10
13 12 12 13 14 14 14 14 13 12 12 12 11 10 9 9 9 10 11 11 11 11 12 11 11 12 12 12 11 11 11 10 10 10 10 10 11 11 11 11 11 10 9 7 6 4 3 3 2 1 1 3 4 6 10 12 12 11 9 7 5 5 5 5 6 7 8 8 7 7 6 6 6 6 6 6 5 5 5 5 5 4 4 4 4 4 5 6 7 7 7 7 8 9 7 8 9 10 9 7 7 8 9
14 14 14 14 15 15 16 16 15 15 14 13 12 11 10 10 10 10 11 11 11 11 12 12 11 11 10 10 10 10 9 9 8 8 8 9 9 10 10 11 11 11 11 10 8 7 6 5 3 2 2 2 4 7 10 11 11 10 8 5 3 1 1 2 3 5 6 7 8 8 8 7 7 6 6 6 6 6 5 5 5 5 5 5 4 5 5 6 6 7 7 6 6 7 8 8 8 9 10 9 7 6 7
14 14 14 13 12 12 14 14 15 16 16 15 13 13 12 12 12 11 11 11 11 11 11 11 11 10 8 9 9 9 8 8 8 7 7 7 8 8 9 10 11 11 11 10 9 8 8 7 6 5 4 5 6 8 10 10 10 10 8 6 4 2 0 0 1 2 4 5 7 8 9 9 9 9 8 8 7 7 7 6 6 6 6 5 5 5 5 5 6 6 7 6 5 5 7 8 8 9 10 11 10 8 6
14 14 13 11 10 9 10 9 10 11 12 13 13 14 14 13 12 12 12 12 11 11 10 10 10 9 9 9 9 8 8 8 8 8 7 7 8 8 9 9 10 11 11 10 10 10 10 9 9 8 8 7 7 7 7 7 7 7 7 7 6 5 4 2 1 0 1 3 5 6 8 9 10 11 11 10 10 10 9 8 7 7 6 6 6 6 5 5 5 6 6 6 5 4 4 6 7 8 9 11 11 11 8
14 13 13 11 10 8 7 6 6 6 7 8 9 10 10 10 10 10 10 10 9 9 9 9 9 9 8 8 8 8 8 8 8 9 9 8 8 8 9 9 9 10 10 10 10 10 10 11 11 11 10 8 7 5 4 3 3 3 4 6 7 8 7 5 3 2 1 2 3 4 6 8 10 11 12 12 12 12 12 11 10 8 7 6 6 6 6 5 5 5 5 5 5 4 3 4 6 7 7 9 10 11 11
12 12 12 12 11 9 8 8 7 6 6 6 6 7 7 7 8 8 8 8 8 8 8 8 9 9 9 9 8 9 9 9 9 9 9 9 9 9 9 9 8 8 8 8 9 9 10 11 11 12 11 9 7 6 4 3 2 2 2 4 5 6 7 6 6 5 4 3 4 4 5 7 8 9 10 11 12 13 14 13 12 11 9 7 6 6 6 5 4 4 4 4 4 4 3 2 3 5 6 6 8 9 10
11 11 11 11 11 11 10 9 8 8 7 7 8 8 8 8 8 8 8 8 9 9 8 7 8 9 10 9 9 9 9 9 9 9 10 9 9 9 9 8 7 6 6 6 7 7 8 9 10 11 11 10 9 8 7 6 5 4 4 4 4 5 6 6 7 7 6 6 6 6 7 8 8 9 9 10 11 12 13 14 13 12 11 9 7 6 6 5 4 3 3 3 3 4 3 2 2 2 4 4 5 6 7
9 9 10 10 10 10 10 9 9 9 8 8 9 9 9 9 9 8 8 8 9 9 8 7 7 8 9 9 9 8 8 8 8 8 9 9 8 8 8 7 7 6 5 5 5 5 6 7 8 9 9 10 10 10 10 10 9 8 7 6 6 6 6 7 8 9 9 8 8 9 9 9 10 10 10 10 10 11 12 12 13 13 12 10 8 6 5 5 4 3 2 2 2 3 3 2 1 0 1 2 3 4 5
8 9 9 9 9 9 10 10 9 9 9 9 9 9 9 9 9 9 9 8 8 7 7 7 7 6 7 7 8 8 7 7 7 6 6 7 7 7 6 5 5 5 5 4 4 4 4 4 5 5 6 7 7 8 8 9 9 9 8 8 8 8 8 8 9 10 10 10 10 10 11 11 11 11 10 10 10 10 11 11 11 12 12 11 9 8 6 5 5 4 2 2 2 2 2 2 1 -0 -1 -1 -0 1 4
8 8 9 9 9 9 10 10 10 10 10 10 10 10 9 9 9 9 10 10 9 8 8 8 7 6 6 7 7 7 7 6 6 5 4 4 4 5 5 4 4 4 4 4 3 3 3 2 2 2 2 3 3 4 4 5 5 6 7 7 7 8 8 9 9 9 10 10 11 11 12 12 12 12 11 11 11 10 10 10 10 11 11 11 10 9 8 7 6 5 4 3 2 2 2 2 2 1 -0 -1 -2 -1 0
9 9 9 10 10 10 10 10 10 11 11 11 11 10 10 11 11 11 11 12 12 11 9 10 9 7 6 6 6 6 6 5 4 3 4 4 3 2 3 4 4 3 3 3 3 3 2 2 2 1 1 1 1 1 1 1 2 3 4 4 5 6 6 7 7 8 8 8 9 10 12 13 13 13 13 12 12 11 11 10 10 10 10 11 10 10 9 8 8 7 6 4 3 2 2 2 2 2 2 1 -0 -1 -2
10 10 10 10 11 11 11 10 11 11 12 12 12 12 12 13 13 13 13 12 12 11 9 9 8 8 6 5 5 4 4 4 3 3 3 3 3 2 2 2 3 4 4 4 4 4 3 3 3 2 2 2 1 1 1 1 2 2 2 2 3 3 4 4 5 5 6 6 7 8 10 12 13 14 14 14 13 13 12 12 12 11 11 11 11 10 10 9 9 8 8 6 5 4 3 3 3 3 3 3 2 0 -1
11 11 10 10 11 11 11 12 12 13 13 13 14 14 14 14 13 12 11 10 9 8 8 7 7 7 7 6 6 5 5 5 4 4 4 4 4 4 3 3 5 6 5 6 6 5 5 5 5 5 4 4 4 3 3 3 3 3 3 3 3 3 3 3 3 3 4 4 5 6 7 8 10 12 14 14 15 15 15 15 14 13 13 12 11 11 10 10 10 10 9 8 7 5 4 4 3 3 3 3 3 2 1
11 11 10 10 10 11 12 13 13 13 13 12 12 11 11 11 10 9 8 8 7 7 8 8 7 7 7 7 7 7 7 6 6 7 6 7 7 7 7 7 7 7 6 6 7 8 7 6 6 6 6 6 5 5 5 5 5 4 4 4 4 3 3 3 2 2 2 3 3 4 5 6 7 9 11 13 15 17 18 18 18 16 15 13 12 11 11 10 10 10 10 10 9 8 6 5 4 4 3 4 4 4 3
11 11 11 10 10 10 11 12 11 10 9 8 7 7 7 8 8 8 8 8 8 8 8 8 8 8 8 8 8 7 8 8 8 8 9 9 10 10 10 10 9 8 9 9 9 9 9 9 8 7 7 7 6 6 6 5 5 5 5 5 4 4 4 4 3 3 2 2 2 3 3 4 5 6 8 10 13 15 18 20 20 19 18 16 14 12 11 11 10 10 10 10 10 9 8 6 5 4 4 4 4 4 5
10 10 10 10 9 7 7 6 6 6 5 5 6 7 8 8 9 9 9 9 8 8 8 8 8 8 8 9 9 9 8 9 9 10 10 11 12 12 10 10 9 10 10 11 11 10 8 9 9 9 7 7 7 7 6 6 5 5 5 5 4 4 4 4 4 3 3 2 2 2 2 2 3 4 5 6 9 11 14 17 18 19 18 17 15 13 12 11 10 10 10 10 11 11 10 8 6 5 5 4 4 5 5
6 7 8 8 7 5 4 4 5 6 8 9 9 10 10 9 9 8 8 8 8 7 7 7 8 8 8 9 9 10 10 10 11 11 12 11 12 12 12 11 10 9 8 8 8 7 7 7 8 8 8 7 7 7 6 6 6 5 5 5 4 4 4 4 4 4 4 3 2 1 1 1 1 1 1 3 4 7 9 11 13 14 15 15 15 14 12 11 9 9 9 10 11 12 11 9 8 6 5 5 5 5 5
6 6 6 6 6 7 8 9 10 11 12 12 11 10 9 9 8 8 8 7 7 7 7 7 8 8 9 9 10 10 10 10 10 10 11 10 9 9 9 9 8 8 7 6 5 4 5 5 5 6 5 5 6 6 6 6 6 6 6 6 5 5 4 4 4 5 5 5 4 3 2 1 1 0 -0 0 1 3 5 6 7 8 10 11 13 13 13 12 10 8 8 9 10 12 12 11 9 8 6 6 5 5 5
7 7 7 8 9 11 13 14 15 14 13 12 11 10 9 8 8 8 8 8 8 8 8 9 9 9 9 10 10 10 9 8 7 7 7 7 6 6 5 5 5 5 5 4 3 3 2 4 5 5 2 5 7 7 5 7 7 8 8 8 8 7 7 6 6 6 6 6 6 5 4 3 2 1 0 -1 -1 0 2 3 4 5 6 7 9 10 12 12 12 10 9 8 9 10 12 12 11 9 8 7 6 6 5
4 5 7 10 12 14 15 15 14 13 12 11 11 10 10 9 9 8 8 9 9 9 10 10 10 10 9 9 8 8 7 7 6 5 4 4 4 3 3 3 3 3 4 4 4 4 2 4 5 5 4 6 7 8 7 7 7 8 10 10 10 10 10 9 9 8 8 8 8 8 7 6 5 3 2 1 -0 -1 -1 1 2 3 4 4 5 7 9 11 12 13 12 10 10 10 11 12 12 11 9 8 8 7 6
1 3 6 10 12 12 12 11 10 10 10 10 10 10 10 10 10 10 10 10 10 10 10 9 9 8 7 7 6 6 5 5 4 3 3 3 3 3 3 3 3 3 3 3 4 4 4 3 3 4 4 4 5 6 7 7 6 6 7 8 8 9 9 9 9 9 9 8 8 8 9 9 8 6 5 3 2 0 -1 -1 0 1 2 3 3 4 5 8 11 13 15 14 12 11 11 11 11 11 10 9 9 8 7
5 5 7 8 9 9 8 8 8 9 9 10 10 10 10 10 10 11 10 10 10 9 8 7 6 5 5 4 4 4 3 3 3 3 3 3 3 4 4 4 4 4 4 4 4 4 4 4 4 3 3 3 3 3 4 4 4 4 5 5 5 5 6 6 7 7 7 7 7 7 8 8 8 8 7 6 5 3 0 -1 -1 -1 1 1 1 1 1 4 7 11 15 16 15 14 12 11 11 11 10 10 9 9 8
Height
5833 5833 5833 5833 5832 5832 5832 5831 5831 5831 5831 5831 5830 5830 5830 5830 5829 5828 5828 5828 5828 5828 5828 5828 5828 5828 5828 5828 5828 5828 5828 5828 5828 5828 5828 5828 5828 5828 5828 5828 5828 5828 5828 5827 5827 5827 5827 5827 5827 5827 5827 5826 5826 5826 5826 5826 5827 5827 5827 5827 5827 5827 5828 5828 5828 5828 5828 5828 5828 5828 5828 5828 5828 5829 5829 5829 5830 5830 5831 5831 5831 5832 5832 5833 5833 5833 5834 5835 5835 5836 5836 5837 5838 5838 5839 5840 5841 5842 5843 5844 5845 5846 5846
5832 5832 5831 5831 5831 5831 5830 5830 5830 5830 5830 5829 5829 5829 5829 5828 5828 5827 5827 5827 5827 5827 5827 5826 5826 5826 5827 5827 5827 5827 5827 5826 5826 5826 5826 5826 5826 5826 5826 5826 5826 5826 5826 5826 5826 5826 5826 5826 5826 5826 5826 5825 5825 5825 5825 5825 5825 5826 5826 5826 5826 5827 5827 5827 5827 5828 5828 5827 5828 5828 5828 5828 5828 5828 5828 5828 5828 5829 5829 5829 5830 5830 5831 5831 5831 5832 5832 5833 5833 5834 5835 5836 5836 5837 5837 5838 5839 5840 5841 5842 5843 5844 5845
5830 5830 5830 5830 5829 5829 5829 5829 5828 5828 5828 5828 5828 5828 5828 5827 5827 5826 5826 5826 5826 5825 5825 5825 5825 5825 5825 5825 5825 5825 5825 5825 5825 5825 5825 5825 5825 5825 5825 5825 5825 5825 5825 5825 5825 5825 5825 5825 5825 5824 5824 5824 5824 5824 5824 5824 5824 5824 5825 5825 5825 5826 5826 5826 5826 5826 5827 5826 5826 5827 5827 5826 5826 5827 5827 5827 5827 5828 5828 5828 5828 5829 5829 5830 5830 5830 5831 5831 5832 5833 5834 5835 5835 5835 5836 5837 5838 5838 5839 5840 5841 5842 5843
5828 5828 5828 5828 5828 5828 5828 5827 5827 5827 5827 5827 5826 5826 5827 5828 5826 5825 5825 5825 5824 5824 5823 5823 5823 5823 5824 5825 5824 5824 5824 5823 5823 5823 5823 5823 5823 5823 5823 5823 5823 5823 5823 5823 5823 5823 5823 5823 5823 5823 5823 5823 5823 5823 5823 5823 5823 5823 5824 5824 5824 5824 5825 5825 5825 5825 5826 5825 5825 5825 5825 5825 5825 5826 5826 5826 5826 5826 5827 5827 5827 5828 5828 5828 5829 5829 5830 5830 5831 5832 5833 5833 5834 5834 5835 5835 5836 5837 5838 5838 5839 5840 5841
5827 5827 5827 5827 5827 5826 5826 5826 5826 5825 5825 5825 5825 5825 5825 5826 5826 5825 5823 5823 5823 5822 5821 5823 5824 5824 5825 5825 5824 5823 5823 5822 5822 5823 5823 5822 5822 5822 5822 5822 5822 5822 5822 5822 5822 5822 5822 5822 5822 5822 5822 5822 5822 5822 5822 5822 5822 5822 5823 5823 5823 5823 5823 5824 5824 5824 5824 5824 5824 5824 5824 5825 5825 5825 5825 5825 5825 5825 5826 5826 5826 5826 5827 5827 5827 5828 5828 5829 5830 5831 5831 5832 5833 5833 5833 5834 5834 5835 5836 5837 5838 5838 5838
5826 5825 5825 5825 5825 5825 5825 5824 5824 5824 5824 5823 5823 5823 5823 5823 5824 5823 5822 5822 5821 5820 5820 5822 5823 5823 5823 5823 5823 5822 5821 5821 5821 5821 5821 5821 5821 5820 5820 5820 5820 5820 5820 5820 5820 5820 5820 5820 5820 5820 5820 5820 5820 5820 5820 5821 5821 5821 5821 5821 5822 5822 5822 5823 5823 5823 5823 5823 5824 5824 5824 5824 5824 5824 5824 5824 5824 5824 5824 5825 5825 5825 5825 5826 5826 5826 5827 5828 5829 5829 5830 5831 5831 5832 5832 5833 5833 5833 5834 5836 5836 5837 5838
5824 5824 5823 5823 5823 5823 5823 5823 5823 5823 5822 5822 5822 5822 5822 5822 5822 5821 5821 5821 5820 5819 5818 5820 5821 5820 5821 5821 5821 5821 5820 5820 5820 5820 5820 5820 5820 5819 5819 5819 5818 5818 5818 5818 5818 5818 5818 5818 5818 5818 5818 5818 5819 5819 5819 5819 5819 5820 5820 5820 5820 5821 5821 5821 5822 5822 5822 5822 5823 5823 5823 5823 5823 5823 5823 5823 5823 5823 5823 5823 5823 5824 5824 5824 5825 5825 5826 5826 5827 5828 5828 5829 5830 5830 5831 5831 5832 5832 5833 5833 5833 5835 5837
5822 5822 5822 5822 5822 5822 5821 5821 5821 5821 5821 5821 5820 5821 5820 5820 5820 5820 5820 5819 5818 5818 5820 5819 5819 5819 5819 5820 5820 5819 5818 5818 5818 5819 5819 5819 5819 5818 5818 5818 5817 5817 5817 5817 5817 5817 5817 5817 5817 5817 5817 5817 5817 5818 5818 5818 5818 5818 5818 5819 5819 5819 5820 5820 5820 5820 5821 5821 5821 5822 5822 5822 5822 5822 5822 5822 5822 5822 5822 5822 5822 5823 5823 5823 5823 5824 5824 5825 5826 5827 5827 5827 5828 5828 5829 5830 5830 5831 5831 5832 5832 5833 5834
5821 5820 5820 5820 5820 5820 5820 5819 5819 5819 5819 5819 5819 5819 5819 5818 5818 5818 5818 5818 5818 5818 5818 5818 5818 5817 5817 5818 5818 5818 5817 5817 5817 5818 5818 5818 5818 5817 5817 5816 5816 5816 5816 5816 5816 5816 5816 5816 5816 5816 5816 5816 5816 5816 5816 5816 5817 5817 5817 5817 5818 5818 5818 5818 5819 5819 5819 5819 5820 5821 5821 5821 5821 5821 5821 5821 5821 5821 5821 5821 5821 5821 5822 5822 5822 5823 5823 5823 5824 5825 5826 5825 5826 5827 5827 5828 5829 5829 5830 5830 5830 5830 5831
5819 5819 5818 5818 5818 5818 5818 5818 5818 5818 5818 5818 5817 5817 5817 5817 5817 5817 5817 5816 5817 5817 5816 5816 5816 5815 5815 5815 5815 5816 5816 5815 5815 5816 5816 5816 5816 5816 5816 5815 5815 5814 5814 5814 5814 5814 5814 5814 5814 5814 5814 5814 5814 5814 5815 5815 5815 5815 5816 5816 5816 5817 5817 5817 5817 5818 5818 5818 5818 5819 5819 5820 5820 5820 5820 5820 5820 5820 5820 5820 5820 5820 5821 5821 5821 5821 5822 5822 5822 5823 5825 5825 5825 5825 5826 5826 5827 5828 5828 5828 5828 5829 5829
5818 5818 5817 5817 5816 5816 5816 5816 5816 5816 5816 5816 5816 5815 5815 5815 5815 5815 5815 5814 5814 5814 5813 5813 5813 5813 5813 5813 5813 5814 5814 5813 5813 5814 5814 5814 5814 5814 5814 5813 5813 5813 5813 5813 5812 5812 5813 5813 5813 5813 5813 5813 5813 5813 5813 5813 5813 5814 5814 5814 5815 5815 5815 5816 5816 5816 5817 5817 5817 5817 5818 5818 5818 5819 5819 5819 5819 5819 5819 5819 5819 5819 5819 5819 5820 5820 5820 5820 5821 5821 5822 5823 5823 5823 5824 5824 5825 5826 5826 5826 5827 5827 5828
5816 5815 5815 5815 5815 5815 5815 5815 5815 5814 5814 5814 5814 5814 5814 5813 5813 5813 5813 5813 5812 5812 5812 5812 5812 5811 5811 5811 5811 5812 5812 5812 5812 5812 5812 5812 5812 5813 5812 5812 5812 5811 5811 5811 5811 5811 5811 5811 5811 5811 5812 5811 5812 5812 5812 5812 5812 5812 5813 5813 5813 5813 5814 5814 5814 5814 5815 5815 5816 5816 5816 5817 5817 5818 5818 5818 5818 5818 5818 5818 5818 5818 5818 5818 5818 5818 5819 5819 5819 5820 5820 5821 5821 5822 5822 5823 5823 5824 5824 5825 5825 5826 5826
5814 5813 5813 5813 5813 5813 5813 5813 5813 5813 5813 5813 5812 5812 5812 5812 5812 5811 5811 5811 5810 5810 5810 5810 5810 5810 5809 5809 5810 5812 5812 5812 5812 5812 5812 5811 5810 5810 5811 5810 5810 5810 5809 5809 5809 5809 5809 5809 5809 5810 5810 5810 5810 5810 5810 5810 5811 5811 5811 5811 5812 5812 5812 5813 5812 5813 5813 5813 5813 5814 5815 5815 5816 5816 5816 5816 5817 5817 5817 5817 5817 5817 5817 5817 5817 5817 5817 5818 5818 5818 5818 5819 5819 5820 5820 5821 5821 5822 5822 5823 5823 5824 5824
5812 5812 5812 5811 5811 5811 5811 5811 5811 5811 5811 5811 5811 5811 5810 5810 5810 5810 5809 5809 5809 5808 5808 5808 5808 5808 5808 5807 5808 5809 5809 5810 5810 5810 5809 5810 5810 5809 5809 5809 5808 5808 5808 5808 5808 5808 5808 5808 5808 5808 5808 5808 5809 5809 5809 5809 5809 5809 5809 5809 5810 5810 5811 5811 5811 5811 5811 5811 5812 5812 5813 5813 5814 5814 5814 5815 5815 5815 5815 5815 5815 5815 5816 5816 5816 5816 5816 5816 5817 5817 5817 5817 5818 5818 5818 5819 5819 5820 5820 5821 5822 5822 5823
5810 5811 5811 5810 5809 5809 5809 5809 5809 5809 5809 5809 5809 5809 5808 5808 5808 5808 5808 5807 5807 5807 5807 5807 5806 5806 5806 5806 5805 5806 5807 5808 5807 5806 5806 5806 5808 5808 5806 5807 5807 5807 5806 5806 5806 5806 5806 5806 5806 5806 5806 5807 5807 5807 5807 5807 5807 5807 5807 5807 5808 5808 5809 5809 5810 5810 5809 5810 5810 5811 5811 5812 5812 5812 5813 5813 5813 5813 5813 5814 5814 5814 5814 5814 5814 5814 5815 5815 5815 5815 5816 5816 5816 5816 5817 5817 5818 5818 5818 5819 5820 5820 5821
5808 5808 5809 5809 5808 5808 5807 5807 5807 5807 5807 5807 5807 5807 5807 5807 5806 5806 5806 5806 5805 5805 5805 5805 5805 5804 5804 5804 5804 5804 5803 5804 5804 5803 5804 5804 5806 5807 5805 5805 5805 5805 5804 5804 5804 5804 5804 5804 5804 5804 5804 5805 5805 5805 5805 5805 5805 5805 5805 5805 5806 5807 5807 5808 5808 5808 5808 5808 5808 5809 5809 5810 5811 5811 5811 5811 5811 5811 5812 5812 5812 5813 5813 5813 5813 5813 5813 5813 5814 5814 5814 5814 5815 5815 5815 5815 5816 5816 5817 5817 5818 5818 5819
5805 5806 5806 5807 5806 5806 5805 5805 5805 5805 5805 5805 5805 5805 5805 5804 5804 5804 5804 5804 5803 5803 5803 5803 5803 5803 5803 5802 5802 5801 5801 5801 5801 5801 5801 5802 5804 5805 5804 5803 5803 5803 5802 5802 5803 5803 5803 5803 5803 5803 5803 5803 5803 5803 5803 5803 5803 5803 5804 5804 5805 5805 5806 5806 5806 5806 5806 5806 5807 5807 5808 5809 5810 5810 5808 5809 5809 5809 5810 5810 5811 5811 5811 5811 5812 5812 5812 5812 5812 5813 5813 5813 5813 5813 5814 5814 5814 5815 5815 5816 5816 5817 5818
5803 5803 5803 5804 5804 5804 5804 5803 5803 5803 5803 5803 5803 5803 5803 5803 5803 5802 5802 5802 5802 5801 5801 5801 5801 5801 5801 5800 5800 5799 5799 5798 5798 5798 5798 5799 5801 5802 5801 5802 5802 5800 5800 5800 5801 5801 5801 5801 5801 5801 5801 5801 5801 5802 5802 5801 5801 5801 5802 5803 5803 5803 5804 5804 5804 5805 5805 5805 5806 5806 5806 5807 5807 5807 5807 5807 5807 5808 5808 5808 5809 5809 5809 5810 5810 5810 5810 5811 5811 5811 5811 5812 5812 5812 5812 5813 5813 5813 5814 5814 5815 5815 5816
5801 5801 5801 5801 5801 5801 5801 5801 5801 5800 5800 5800 5800 5800 5800 5800 5800 5800 5800 5800 5799 5799 5799 5799 5799 5799 5799 5798 5798 5798 5797 5797 5796 5795 5796 5796 5797 5798 5799 5799 5799 5798 5798 5798 5799 5799 5799 5799 5799 5799 5799 5799 5799 5799 5799 5799 5799 5799 5799 5800 5801 5801 5802 5802 5802 5803 5803 5803 5804 5804 5803 5803 5804 5804 5804 5805 5805 5805 5806 5806 5807 5807 5808 5808 5808 5808 5809 5809 5809 5809 5810 5810 5810 5811 5811 5811 5812 5812 5812 5813 5813 5814 5814
5798 5798 5798 5798 5798 5798 5798 5798 5798 5798 5798 5798 5798 5798 5798 5798 5798 5798 5798 5797 5797 5797 5797 5797 5797 5797 5797 5796 5796 5796 5795 5795 5794 5793 5793 5793 5794 5795 5796 5796 5796 5796 5796 5796 5797 5797 5797 5797 5797 5797 5797 5797 5797 5797 5797 5797 5797 5797 5797 5798 5798 5799 5799 5799 5800 5800 5801 5801 5801 5801 5801 5802 5802 5802 5802 5803 5803 5803 5803 5804 5804 5805 5805 5806 5806 5807 5807 5808 5808 5808 5808 5808 5809 5809 5809 5810 5810 5811 5811 5811 5812 5812 5813
5796 5796 5796 5796 5796 5795 5795 5795 5795 5795 5795 5795 5795 5795 5795 5795 5795 5795 5795 5795 5795 5795 5795 5795 5795 5795 5794 5794 5794 5794 5793 5793 5793 5791 5790 5790 5791 5793 5795 5794 5793 5793 5793 5794 5794 5794 5795 5795 5795 5795 5795 5795 5795 5795 5795 5794 5795 5795 5795 5795 5796 5796 5797 5797 5798 5798 5798 5798 5799 5799 5800 5800 5800 5800 5800 5800 5801 5801 5802 5802 5802 5803 5803 5804 5804 5805 5805 5806 5806 5807 5807 5807 5807 5808 5808 5808 5809 5809 5809 5810 5810 5811 5811
5794 5793 5793 5793 5793 5793 5793 5792 5792 5792 5792 5792 5792 5792 5792 5792 5792 5792 5792 5792 5792 5792 5792 5792 5792 5792 5792 5792 5792 5792 5792 5792 5791 5789 5789 5789 5791 5792 5792 5791 5790 5791 5791 5791 5792 5792 5793 5793 5793 5793 5793 5793 5793 5793 5792 5792 5793 5793 5793 5793 5793 5794 5795 5795 5795 5796 5796 5796 5797 5797 5798 5798 5798 5798 5798 5798 5799 5799 5800 5800 5801 5801 5801 5802 5802 5803 5803 5804 5804 5805 5805 5806 5806 5806 5806 5807 5807 5808 5808 5808 5809 5809 5810
5791 5791 5791 5791 5790 5790 5790 5789 5789 5789 5789 5789 5789 5789 5789 5789 5789 5789 5789 5789 5789 5789 5789 5790 5790 5789 5789 5789 5789 5790 5790 5789 5788 5788 5787 5789 5789 5788 5788 5788 5788 5788 5788 5789 5789 5790 5790 5790 5790 5790 5790 5791 5791 5791 5790 5790 5790 5791 5791 5792 5792 5792 5793 5793 5793 5793 5794 5794 5795 5795 5795 5795 5796 5796 5796 5796 5797 5797 5798 5798 5799 5799 5800 5800 5800 5801 5802 5802 5803 5803 5803 5804 5804 5805 5805 5805 5806 5806 5806 5807 5807 5808 5808
5788 5788 5788 5788 5788 5787 5787 5787 5787 5786 5786 5786 5786 5786 5786 5786 5786 5786 5786 5787 5787 5787 5787 5787 5787 5787 5787 5787 5787 5787 5787 5787 5786 5786 5785 5787 5786 5784 5784 5785 5785 5786 5786 5786 5787 5788 5788 5788 5788 5788 5788 5788 5788 5788 5788 5788 5788 5789 5789 5790 5790 5790 5790 5791 5791 5791 5792 5792 5793 5793 5793 5793 5794 5794 5794 5794 5794 5795 5796 5796 5797 5797 5798 5799 5799 5799 5799 5800 5801 5801 5802 5802 5803 5803 5803 5803 5804 5804 5805 5805 5806 5806 5807
5786 5785 5785 5785 5785 5785 5784 5784 5784 5783 5783 5783 5783 5783 5783 5783 5783 5783 5783 5783 5783 5784 5784 5784 5784 5784 5784 5784 5784 5784 5785 5784 5784 5783 5783 5784 5783 5781 5781 5781 5782 5783 5783 5783 5784 5784 5785 5785 5785 5786 5786 5786 5786 5786 5786 5786 5786 5787 5787 5788 5788 5788 5788 5788 5789 5789 5789 5790 5790 5791 5791 5792 5792 5792 5792 5792 5793 5793 5793 5794 5795 5795 5796 5797 5797 5797 5797 5798 5798 5799 5800 5800 5801 5801 5802 5802 5802 5803 5803 5803 5804 5804 5805
5783 5782 5782 5782 5782 5782 5781 5781 5781 5780 5780 5780 5780 5780 5780 5780 5780 5780 5780 5780 5780 5781 5781 5781 5781 5781 5781 5781 5781 5782 5783 5782 5782 5781 5781 5781 5780 5778 5778 5780 5781 5782 5782 5781 5781 5781 5782 5782 5783 5784 5784 5783 5783 5784 5784 5784 5784 5784 5785 5785 5786 5786 5786 5786 5787 5787 5787 5788 5788 5788 5789 5789 5789 5790 5790 5790 5790 5790 5791 5792 5792 5793 5794 5795 5796 5796 5797 5796 5796 5797 5798 5798 5799 5799 5800 5800 5801 5801 5802 5802 5802 5803 5803
5779 5779 5778 5778 5778 5778 5778 5778 5778 5778 5777 5777 5777 5777 5777 5777 5777 5777 5777 5777 5777 5778 5778 5778 5778 5778 5778 5778 5778 5779 5780 5780 5780 5779 5779 5780 5779 5777 5777 5779 5781 5781 5780 5780 5779 5778 5778 5779 5779 5780 5780 5781 5781 5781 5782 5782 5782 5782 5782 5783 5783 5783 5784 5784 5784 5784 5785 5785 5785 5786 5786 5786 5787 5787 5788 5788 5788 5788 5789 5789 5790 5791 5792 5793 5794 5794 5794 5793 5793 5795 5795 5796 5797 5798 5798 5798 5799 5799 5800 5800 5801 5801 5802
5775 5775 5774 5774 5774 5774 5774 5774 5774 5774 5774 5774 5773 5773 5773 5773 5773 5773 5773 5774 5774 5774 5774 5774 5775 5775 5775 5775 5776 5776 5776 5777 5777 5777 5776 5777 5777 5776 5776 5777 5777 5776 5775 5775 5775 5775 5775 5776 5776 5776 5777 5778 5778 5778 5779 5779 5779 5779 5780 5780 5780 5781 5781 5782 5782 5782 5783 5783 5783 5783 5784 5784 5785 5785 5786 5786 5786 5786 5787 5787 5788 5789 5790 5791 5792 5792 5793 5792 5792 5792 5793 5794 5795 5795 5796 5796 5797 5798 5798 5798 5799 5799 5800
5771 5771 5771 5771 5771 5770 5770 5770 5770 5770 5770 5770 5770 5770 5770 5770 5770 5770 5770 5770 5770 5770 5771 5771 5771 5772 5772 5772 5773 5773 5773 5773 5774 5775 5775 5774 5773 5772 5773 5770 5770 5771 5771 5772 5772 5772 5773 5773 5773 5773 5774 5774 5775 5775 5776 5776 5776 5777 5777 5777 5778 5778 5778 5779 5779 5780 5780 5780 5780 5781 5782 5782 5783 5784 5784 5784 5784 5784 5784 5785 5786 5787 5788 5789 5790 5790 5790 5789 5789 5790 5791 5792 5793 5793 5794 5794 5795 5795 5796 5797 5797 5798 5798
5767 5767 5767 5767 5767 5767 5766 5767 5767 5767 5767 5767 5767 5767 5767 5767 5767 5766 5766 5767 5767 5767 5767 5768 5768 5768 5769 5769 5770 5770 5771 5772 5772 5771 5770 5768 5768 5767 5767 5767 5767 5768 5770 5769 5769 5770 5770 5770 5771 5771 5771 5772 5773 5773 5773 5773 5773 5774 5774 5774 5775 5776 5776 5776 5777 5777 5778 5778 5778 5778 5779 5780 5780 5781 5782 5782 5782 5782 5783 5783 5784 5784 5785 5786 5787 5788 5788 5787 5788 5790 5788 5789 5790 5791 5791 5792 5793 5793 5794 5795 5795 5796 5797
5763 5763 5763 5763 5763 5763 5762 5763 5763 5763 5763 5763 5763 5763 5763 5763 5763 5763 5763 5763 5763 5763 5764 5764 5764 5765 5765 5766 5767 5768 5769 5770 5768 5765 5765 5765 5764 5764 5764 5764 5764 5766 5769 5767 5767 5767 5767 5768 5768 5768 5768 5769 5769 5770 5770 5770 5770 5771 5772 5772 5772 5773 5773 5774 5774 5775 5776 5776 5776 5776 5776 5777 5777 5778 5778 5779 5779 5780 5780 5781 5782 5782 5783 5784 5784 5785 5786 5786 5786 5786 5787 5788 5788 5788 5789 5790 5791 5791 5792 5793 5793 5794 5795
5759 5759 5759 5759 5759 5758 5758 5758 5758 5758 5758 5758 5758 5758 5759 5759 5760 5760 5760 5760 5760 5761 5761 5761 5761 5762 5762 5762 5763 5763 5765 5763 5764 5765 5764 5764 5763 5762 5763 5762 5763 5763 5764 5763 5763 5763 5763 5764 5764 5765 5765 5766 5766 5767 5766 5767 5767 5768 5768 5768 5769 5770 5770 5771 5772 5772 5773 5773 5773 5773 5774 5774 5774 5775 5776 5776 5777 5778 5778 5779 5779 5780 5780 5781 5782 5783 5784 5783 5783 5784 5785 5786 5786 5786 5787 5788 5788 5789 5790 5791 5791 5792 5793
5755 5755 5755 5755 5755 5754 5754 5754 5754 5754 5754 5754 5754 5755 5756 5756 5756 5756 5756 5756 5756 5757 5757 5757 5758 5758 5758 5759 5759 5760 5760 5760 5759 5760 5762 5763 5763 5762 5758 5758 5758 5758 5759 5759 5759 5759 5759 5760 5761 5762 5763 5763 5763 5763 5763 5763 5763 5764 5764 5765 5766 5767 5767 5768 5769 5770 5770 5771 5771 5771 5772 5772 5772 5773 5773 5774 5774 5775 5776 5776 5777 5777 5778 5778 5779 5780 5781 5782 5782 5781 5782 5783 5784 5785 5785 5786 5787 5787 5788 5788 5789 5790 5790
5752 5751 5751 5751 5751 5751 5750 5750 5750 5750 5751 5751 5751 5751 5753 5753 5752 5752 5752 5752 5752 5753 5753 5753 5753 5753 5754 5755 5755 5756 5756 5756 5756 5756 5756 5757 5757 5756 5754 5755 5755 5755 5755 5756 5756 5756 5757 5758 5758 5759 5760 5760 5761 5760 5760 5760 5760 5761 5761 5762 5762 5763 5764 5765 5766 5766 5767 5768 5768 5768 5769 5769 5770 5770 5771 5771 5772 5773 5773 5774 5774 5775 5775 5776 5776 5777 5777 5779 5779 5779 5778 5779 5781 5783 5783 5783 5784 5785 5786 5786 5787 5788 5788
5748 5748 5748 5747 5747 5747 5747 5746 5746 5746 5747 5747 5748 5748 5748 5749 5748 5748 5748 5748 5748 5749 5749 5749 5749 5750 5751 5751 5752 5752 5753 5753 5753 5753 5753 5753 5752 5751 5751 5751 5751 5752 5752 5752 5752 5753 5754 5755 5756 5756 5757 5758 5757 5757 5757 5757 5757 5757 5758 5758 5759 5759 5760 5762 5763 5764 5764 5765 5765 5766 5766 5767 5768 5768 5768 5769 5769 5770 5771 5771 5772 5772 5773 5773 5773 5773 5774 5776 5777 5777 5776 5776 5778 5781 5781 5781 5782 5783 5783 5784 5785 5785 5786
5744 5744 5744 5743 5743 5743 5743 5742 5742 5743 5743 5743 5744 5744 5744 5744 5744 5743 5743 5744 5745 5745 5746 5746 5746 5747 5747 5748 5748 5748 5748 5749 5749 5749 5749 5748 5748 5748 5748 5748 5748 5748 5748 5748 5748 5750 5751 5752 5753 5753 5753 5754 5754 5754 5753 5754 5754 5754 5755 5755 5756 5757 5757 5758 5759 5760 5761 5762 5762 5763 5763 5764 5764 5765 5765 5766 5767 5767 5768 5768 5769 5770 5770 5771 5771 5771 5771 5773 5774 5775 5774 5775 5775 5776 5778 5778 5779 5781 5781 5782 5782 5783 5784
5740 5740 5740 5740 5739 5739 5739 5739 5739 5738 5739 5739 5740 5740 5740 5740 5740 5740 5738 5739 5740 5741 5742 5742 5743 5743 5744 5744 5745 5745 5745 5745 5746 5746 5745 5745 5744 5744 5744 5744 5745 5745 5745 5746 5746 5746 5748 5748 5749 5750 5750 5750 5750 5750 5751 5751 5751 5751 5752 5752 5753 5753 5754 5755 5756 5757 5758 5758 5759 5759 5760 5761 5761 5762 5763 5763 5764 5764 5765 5766 5767 5767 5768 5768 5768 5768 5769 5769 5771 5772 5772 5773 5773 5773 5775 5775 5777 5778 5779 5779 5779 5780 5781
5737 5737 5737 5736 5736 5735 5735 5735 5735 5735 5735 5736 5738 5738 5736 5736 5736 5735 5735 5736 5736 5737 5738 5739 5739 5739 5740 5740 5741 5741 5741 5742 5742 5742 5742 5742 5742 5741 5741 5741 5742 5743 5742 5742 5743 5743 5744 5745 5746 5746 5746 5746 5747 5747 5748 5748 5748 5748 5749 5749 5749 5750 5751 5752 5752 5753 5754 5755 5756 5756 5757 5758 5758 5759 5760 5760 5761 5762 5762 5763 5764 5764 5765 5765 5766 5766 5766 5767 5768 5769 5770 5769 5769 5770 5772 5773 5774 5776 5777 5777 5777 5777 5778
5733 5733 5733 5732 5732 5731 5731 5731 5731 5731 5731 5733 5733 5733 5732 5732 5732 5732 5732 5732 5733 5733 5734 5735 5735 5736 5736 5737 5737 5737 5737 5738 5738 5739 5739 5739 5738 5738 5738 5738 5739 5739 5739 5739 5740 5741 5741 5742 5742 5743 5744 5743 5743 5744 5745 5746 5746 5746 5746 5746 5747 5747 5748 5748 5749 5750 5751 5752 5753 5753 5753 5754 5755 5756 5757 5758 5758 5758 5759 5760 5761 5762 5762 5763 5763 5763 5764 5764 5765 5766 5767 5767 5767 5768 5770 5771 5772 5773 5774 5775 5775 5774 5775
5729 5729 5729 5729 5728 5727 5727 5727 5727 5727 5728 5728 5728 5728 5728 5728 5728 5728 5728 5728 5729 5729 5730 5731 5731 5732 5732 5733 5733 5733 5734 5734 5735 5735 5735 5735 5735 5735 5736 5736 5736 5736 5736 5737 5737 5738 5738 5739 5739 5740 5741 5740 5740 5741 5742 5743 5743 5743 5743 5743 5744 5744 5745 5745 5746 5747 5748 5748 5749 5750 5750 5751 5752 5753 5753 5754 5755 5755 5756 5757 5758 5759 5759 5760 5760 5761 5761 5762 5762 5763 5763 5765 5765 5765 5766 5768 5769 5769 5771 5773 5772 5772 5773
5726 5726 5726 5726 5726 5724 5722 5722 5723 5723 5723 5724 5724 5724 5724 5724 5724 5724 5725 5725 5725 5726 5726 5727 5727 5728 5728 5729 5730 5730 5730 5731 5732 5732 5732 5732 5732 5732 5733 5733 5733 5733 5733 5734 5734 5734 5735 5736 5736 5736 5737 5737 5737 5738 5738 5739 5739 5740 5740 5740 5741 5741 5742 5743 5743 5744 5745 5746 5746 5747 5748 5748 5749 5749 5750 5751 5752 5752 5753 5753 5754 5755 5756 5757 5757 5758 5758 5758 5759 5759 5760 5761 5762 5762 5763 5764 5765 5765 5767 5768 5769 5770 5770
5723 5723 5723 5723 5723 5722 5719 5719 5719 5719 5719 5720 5720 5721 5721 5721 5721 5721 5722 5722 5722 5722 5723 5723 5724 5724 5725 5725 5726 5727 5727 5728 5729 5730 5730 5729 5729 5729 5730 5730 5730 5731 5731 5731 5731 5732 5732 5733 5733 5733 5733 5733 5733 5734 5734 5735 5736 5736 5736 5737 5737 5738 5739 5739 5740 5741 5742 5743 5743 5744 5744 5745 5746 5746 5747 5748 5748 5749 5750 5750 5750 5751 5752 5753 5754 5754 5755 5756 5756 5756 5757 5758 5759 5761 5761 5761 5761 5762 5763 5765 5766 5767 5768
5718 5719 5720 5719 5719 5719 5717 5716 5716 5717 5716 5717 5717 5718 5718 5718 5718 5718 5718 5718 5719 5719 5719 5720 5720 5721 5721 5722 5723 5723 5724 5725 5726 5727 5727 5726 5726 5727 5727 5727 5727 5728 5728 5728 5728 5728 5729 5729 5729 5729 5730 5730 5730 5730 5731 5732 5732 5733 5733 5733 5734 5734 5735 5736 5737 5738 5738 5739 5739 5740 5741 5742 5743 5743 5743 5744 5745 5745 5746 5747 5747 5748 5748 5749 5750 5751 5752 5752 5753 5753 5754 5754 5755 5757 5759 5758 5758 5759 5761 5763 5763 5763 5765
5714 5714 5715 5715 5716 5716 5713 5712 5713 5714 5714 5714 5714 5714 5715 5715 5715 5715 5715 5715 5715 5715 5715 5716 5717 5717 5718 5718 5719 5720 5721 5721 5722 5723 5723 5723 5723 5723 5723 5724 5724 5724 5724 5725 5725 5725 5725 5726 5726 5726 5726 5727 5727 5727 5727 5728 5728 5729 5729 5730 5731 5731 5732 5733 5733 5733 5734 5735 5735 5736 5737 5738 5739 5740 5740 5741 5742 5742 5743 5743 5743 5744 5745 5746 5747 5747 5748 5749 5750 5750 5751 5751 5752 5753 5754 5756 5757 5757 5757 5758 5759 5760 5762
5711 5711 5710 5711 5711 5711 5710 5709 5709 5710 5711 5711 5711 5711 5711 5711 5711 5711 5711 5712 5712 5712 5712 5712 5713 5713 5714 5715 5716 5717 5717 5718 5718 5719 5719 5719 5719 5719 5720 5720 5721 5721 5721 5721 5721 5722 5722 5723 5723 5723 5723 5723 5723 5724 5724 5725 5725 5726 5726 5727 5728 5728 5728 5728 5729 5729 5730 5730 5731 5732 5733 5733 5734 5735 5736 5737 5738 5739 5739 5740 5740 5741 5742 5743 5743 5744 5744 5745 5746 5747 5748 5748 5749 5749 5750 5752 5754 5754 5753 5755 5756 5758 5759
5707 5707 5707 5707 5707 5706 5706 5706 5706 5706 5707 5707 5707 5708 5708 5708 5707 5708 5708 5708 5708 5708 5708 5709 5709 5710 5711 5712 5712 5713 5713 5714 5714 5715 5715 5716 5716 5716 5716 5717 5717 5718 5718 5718 5718 5718 5719 5719 5720 5720 5720 5720 5720 5721 5721 5721 5722 5723 5723 5724 5724 5725 5725 5725 5725 5726 5726 5726 5727 5727 5728 5729 5730 5731 5732 5733 5734 5735 5736 5736 5737 5737 5738 5739 5740 5741 5741 5741 5742 5743 5744 5745 5746 5746 5747 5748 5750 5750 5750 5751 5753 5755 5757
5703 5703 5703 5703 5703 5703 5703 5703 5703 5703 5703 5703 5704 5704 5704 5704 5704 5704 5705 5705 5705 5705 5705 5705 5706 5707 5707 5708 5708 5709 5710 5710 5711 5711 5712 5712 5712 5713 5713 5713 5713 5714 5714 5714 5714 5715 5715 5716 5716 5717 5716 5717 5717 5717 5718 5718 5718 5719 5720 5720 5721 5721 5722 5722 5722 5722 5723 5723 5723 5723 5724 5725 5726 5727 5728 5729 5730 5731 5732 5732 5733 5733 5734 5735 5735 5736 5738 5738 5738 5740 5740 5741 5742 5743 5743 5744 5745 5746 5746 5747 5748 5750 5753
5700 5700 5699 5699 5699 5699 5699 5699 5699 5699 5699 5700 5700 5700 5700 5700 5700 5701 5701 5701 5701 5701 5701 5702 5703 5703 5704 5704 5705 5705 5706 5706 5707 5708 5708 5708 5709 5709 5709 5710 5710 5710 5710 5711 5711 5711 5712 5712 5712 5713 5713 5713 5713 5714 5714 5714 5715 5715 5716 5716 5717 5717 5718 5718 5718 5719 5719 5719 5720 5720 5720 5721 5721 5723 5723 5725 5726 5727 5728 5728 5729 5730 5730 5731 5732 5732 5733 5734 5735 5736 5737 5738 5738 5739 5740 5741 5741 5742 5742 5743 5744 5746 5748
5696 5696 5696 5696 5696 5696 5696 5696 5696 5696 5696 5696 5696 5696 5696 5696 5697 5697 5697 5697 5697 5698 5698 5698 5699 5699 5700 5701 5701 5702 5703 5703 5703 5704 5704 5705 5705 5705 5706 5706 5706 5706 5707 5707 5707 5708 5708 5708 5708 5709 5709 5709 5709 5710 5710 5711 5711 5712 5712 5713 5713 5713 5713 5714 5714 5715 5715 5716 5716 5717 5717 5717 5718 5718 5719 5720 5722 5723 5723 5724 5725 5726 5727 5727 5728 5729 5729 5730 5731 5732 5733 5734 5735 5736 5736 5737 5738 5738 5739 5740 5741 5742 5745
5693 5693 5692 5692 5692 5692 5692 5692 5692 5692 5692 5692 5692 5692 5692 5693 5693 5693 5693 5694 5694 5694 5695 5695 5696 5696 5697 5697 5698 5699 5699 5699 5700 5700 5701 5701 5701 5702 5702 5703 5703 5703 5703 5703 5703 5703 5704 5704 5704 5705 5705 5705 5706 5706 5706 5707 5707 5707 5708 5708 5709 5709 5710 5710 5710 5711 5711 5712 5713 5713 5713 5713 5713 5714 5714 5715 5717 5718 5719 5720 5721 5722 5723 5723 5724 5725 5725 5726 5728 5728 5729 5730 5731 5732 5733 5734 5734 5735 5736 5737 5737 5739 5741
5689 5689 5688 5688 5688 5688 5688 5688 5688 5688 5689 5688 5688 5688 5689 5689 5689 5690 5690 5691 5691 5692 5693 5693 5693 5693 5693 5694 5694 5695 5696 5696 5696 5697 5696 5697 5698 5698 5698 5698 5698 5699 5699 5699 5700 5699 5700 5700 5700 5701 5701 5701 5701 5702 5702 5702 5702 5703 5703 5704 5705 5705 5705 5706 5706 5707 5707 5708 5708 5709 5709 5709 5710 5710 5710 5711 5712 5713 5714 5715 5716 5717 5718 5719 5720 5720 5721 5722 5723 5724 5725 5726 5727 5728 5729 5730 5731 5732 5733 5733 5734 5735 5736
5685 5685 5685 5684 5684 5684 5684 5684 5684 5685 5685 5685 5685 5685 5685 5686 5686 5687 5687 5688 5688 5688 5689 5690 5690 5690 5690 5690 5691 5691 5692 5692 5692 5693 5692 5693 5693 5694 5694 5694 5694 5695 5695 5695 5695 5695 5696 5695 5696 5697 5697 5697 5697 5697 5697 5698 5698 5698 5698 5699 5700 5700 5701 5701 5702 5702 5703 5703 5704 5704 5705 5705 5706 5706 5706 5707 5707 5708 5709 5710 5711 5712 5713 5714 5715 5716 5717 5718 5719 5720 5721 5722 5723 5724 5725 5726 5727 5728 5729 5729 5730 5731 5732
5681 5681 5681 5681 5681 5680 5680 5681 5681 5681 5682 5682 5682 5682 5682 5683 5683 5684 5684 5684 5684 5685 5685 5686 5686 5686 5687 5687 5687 5687 5688 5688 5688 5688 5689 5688 5689 5689 5690 5690 5690 5691 5692 5692 5691 5690 5691 5691 5692 5693 5693 5693 5693 5693 5693 5693 5693 5693 5694 5694 5695 5695 5696 5697 5697 5698 5698 5699 5699 5700 5700 5701 5701 5702 5702 5703 5703 5703 5704 5705 5706 5707 5708 5709 5710 5711 5712 5713 5714 5715 5716 5718 5719 5720 5721 5722 5723 5724 5724 5725 5726 5727 5728
5677 5677 5677 5677 5677 5677 5677 5676 5677 5677 5678 5678 5678 5678 5679 5679 5680 5680 5681 5681 5681 5682 5682 5682 5683 5683 5682 5683 5683 5683 5684 5684 5684 5685 5685 5685 5685 5685 5686 5687 5687 5687 5687 5688 5687 5686 5687 5688 5688 5688 5688 5689 5689 5688 5689 5689 5689 5689 5689 5690 5690 5690 5691 5692 5693 5693 5694 5694 5694 5695 5696 5696 5697 5697 5698 5698 5699 5699 5700 5700 5701 5702 5703 5704 5705 5706 5707 5708 5709 5710 5711 5713 5714 5715 5716 5717 5718 5719 5720 5721 5722 5723 5723
5673 5673 5673 5673 5673 5673 5673 5673 5673 5673 5674 5674 5674 5675 5675 5676 5676 5677 5677 5677 5678 5678 5678 5678 5679 5679 5678 5678 5679 5679 5680 5680 5680 5681 5681 5681 5682 5682 5682 5683 5683 5683 5683 5684 5683 5682 5683 5684 5685 5684 5684 5685 5685 5685 5685 5685 5685 5685 5685 5686 5686 5686 5687 5687 5688 5688 5689 5689 5690 5690 5691 5692 5692 5693 5693 5694 5694 5695 5696 5696 5697 5697 5698 5699 5700 5701 5702 5703 5704 5705 5706 5708 5709 5711 5712 5713 5713 5714 5715 5716 5717 5718 5718
5670 5669 5669 5669 5669 5669 5669 5669 5669 5670 5670 5670 5671 5671 5672 5672 5673 5673 5673 5673 5674 5674 5674 5674 5675 5675 5675 5675 5675 5675 5676 5676 5676 5677 5677 5677 5678 5678 5678 5678 5678 5679 5679 5679 5679 5679 5679 5680 5681 5680 5679 5682 5682 5681 5680 5681 5681 5681 5681 5681 5681 5682 5682 5683 5683 5683 5684 5684 5685 5686 5686 5687 5687 5688 5689 5689 5690 5691 5691 5692 5692 5693 5693 5694 5695 5696 5697 5698 5699 5700 5701 5703 5704 5706 5707 5708 5709 5709 5710 5711 5712 5713 5714
5666 5666 5666 5666 5666 5665 5665 5665 5666 5666 5667 5667 5668 5668 5668 5669 5669 5669 5669 5670 5670 5670 5671 5671 5671 5671 5671 5672 5671 5671 5672 5672 5672 5673 5673 5673 5673 5674 5674 5674 5674 5674 5674 5674 5675 5675 5675 5677 5677 5676 5675 5678 5678 5677 5676 5676 5677 5676 5676 5676 5676 5677 5677 5678 5678 5678 5678 5679 5680 5680 5681 5682 5682 5683 5684 5684 5685 5686 5687 5687 5688 5688 5688 5689 5690 5691 5692 5693 5694 5695 5696 5698 5699 5700 5702 5703 5703 5704 5705 5706 5707 5708 5709
5662 5662 5662 5662 5662 5662 5662 5662 5662 5663 5663 5663 5664 5664 5665 5665 5665 5666 5666 5666 5666 5667 5667 5667 5667 5667 5668 5668 5668 5668 5668 5668 5668 5668 5669 5669 5669 5669 5670 5669 5669 5670 5669 5669 5670 5670 5670 5671 5672 5671 5671 5673 5673 5673 5672 5672 5672 5672 5672 5671 5671 5671 5672 5672 5672 5673 5673 5673 5674 5674 5675 5677 5677 5678 5678 5679 5680 5681 5682 5683 5683 5683 5684 5684 5685 5686 5687 5688 5689 5690 5691 5692 5694 5695 5697 5698 5699 5699 5700 5701 5702 5703 5704
5658 5658 5658 5658 5658 5658 5658 5658 5659 5659 5659 5660 5660 5661 5661 5661 5662 5662 5662 5662 5663 5663 5663 5663 5663 5664 5664 5664 5664 5664 5663 5663 5664 5664 5664 5664 5664 5664 5665 5664 5664 5664 5664 5664 5664 5665 5665 5665 5665 5666 5668 5668 5667 5668 5668 5668 5667 5667 5667 5667 5666 5667 5667 5667 5667 5667 5667 5667 5668 5668 5669 5670 5671 5672 5673 5673 5674 5675 5676 5677 5678 5678 5678 5679 5680 5681 5682 5683 5684 5685 5686 5687 5688 5690 5691 5693 5693 5695 5695 5696 5697 5698 5699
5653 5654 5654 5654 5655 5655 5655 5655 5655 5655 5656 5656 5656 5657 5657 5657 5657 5658 5658 5658 5658 5659 5659 5659 5659 5660 5660 5660 5660 5660 5660 5660 5660 5660 5660 5659 5659 5660 5660 5660 5659 5659 5659 5659 5659 5659 5660 5659 5659 5660 5662 5662 5662 5663 5664 5663 5663 5663 5662 5662 5662 5663 5663 5662 5662 5662 5662 5662 5662 5663 5663 5664 5665 5666 5667 5668 5668 5669 5670 5671 5672 5673 5673 5673 5674 5675 5677 5678 5678 5680 5681 5682 5683 5684 5685 5687 5688 5689 5691 5692 5692 5693 5694
5649 5650 5650 5651 5651 5652 5652 5652 5652 5652 5652 5652 5653 5653 5653 5653 5653 5654 5654 5654 5654 5655 5655 5655 5655 5656 5656 5656 5656 5656 5656 5655 5655 5655 5655 5655 5654 5654 5655 5655 5654 5653 5654 5654 5654 5654 5654 5654 5654 5655 5655 5656 5657 5658 5659 5659 5659 5658 5658 5657 5658 5658 5658 5657 5657 5657 5657 5657 5657 5657 5658 5658 5659 5660 5661 5662 5662 5663 5664 5665 5666 5667 5667 5668 5669 5670 5671 5672 5673 5674 5676 5677 5678 5679 5680 5681 5683 5684 5686 5687 5688 5688 5689